FW7184 Weather Reports


Display with metric or nautical units.
time (UTC)temp
F
wind
direction
speed
MPH
gust
MPH
rain 1hr
in
rain 24hr
in
rain mn
in
humidity
%
barometer
mb
20260505021529 54 127 0.0 0.0 0.00 0.00 0.00 81 1010.9
20260505021021 54 120 1.0 1.0 0.00 0.00 0.00 81 1010.9
20260505020520 54 135 0.0 0.0 0.00 0.00 0.00 81 1011.0
20260505020018 54 130 0.0 0.0 0.00 0.00 0.00 81 1010.9
20260505015515 54 130 0.0 0.0 0.00 0.00 0.00 80 1011.0
20260505015012 54 130 0.0 0.0 0.00 0.00 0.00 80 1010.8
20260505014509 55 128 0.0 0.0 0.00 0.00 0.00 79 1010.8
20260505014006 55 129 0.0 0.0 0.00 0.00 0.00 79 1010.9
20260505013503 55 127 0.0 0.0 0.00 0.00 0.00 78 1010.7
20260505013000 55 130 0.0 0.0 0.00 0.00 0.00 77 1010.8
20260505012458 56 130 0.0 0.0 0.00 0.00 0.00 77 1010.7
20260505011955 56 130 0.0 0.0 0.00 0.00 0.00 76 1010.7
20260505011450 56 130 0.0 0.0 0.00 0.00 0.00 75 1010.7
20260505010948 56 129 0.0 0.0 0.00 0.00 0.00 75 1010.6
20260505010443 57 126 0.0 0.0 0.00 0.00 0.00 74 1010.5
20260505005939 57 130 0.0 0.0 0.00 0.00 0.00 73 1010.4
20260505005436 57 132 0.0 0.0 0.00 0.00 0.00 73 1010.4
20260505004934 57 126 0.0 0.0 0.00 0.00 0.00 72 1010.4
20260505004430 58 130 0.0 0.0 0.00 0.00 0.00 72 1010.3
20260505003928 58 130 0.0 0.0 0.00 0.00 0.00 70 1010.0
20260505003425 59 131 0.0 0.0 0.00 0.00 0.00 69 1010.2
20260505002921 59 131 0.0 0.0 0.00 0.00 0.00 69 1010.0
20260505002417 59 126 0.0 0.0 0.00 0.00 0.00 68 1009.8
20260505001916 60 132 0.0 0.0 0.00 0.00 0.00 67 1009.6
20260505001413 60 130 0.0 0.0 0.00 0.00 0.00 66 1009.5
20260505000910 60 132 0.0 0.0 0.00 0.00 0.00 65 1009.4
20260505000408 61 123 0.0 0.0 0.00 0.00 0.00 65 1009.5
20260504235904 61 132 0.0 0.0 0.00 0.00 0.00 63 1009.4
20260504235402 62 125 0.0 0.0 0.00 0.00 0.00 62 1009.3
20260504234857 62 123 0.0 0.0 0.00 0.00 0.00 61 1009.3
20260504234355 62 129 0.0 0.0 0.00 0.00 0.00 61 1009.0
20260504233852 63 127 0.0 0.0 0.00 0.00 0.00 60 1009.2
20260504233347 63 89 0.0 1.0 0.00 0.00 0.00 59 1009.0
20260504232844 64 129 0.0 0.0 0.00 0.00 0.00 58 1008.9
20260504232341 64 131 0.0 0.0 0.00 0.00 0.00 58 1008.9
20260504231838 64 118 0.0 0.0 0.00 0.00 0.00 58 1008.7
20260504231335 65 123 0.0 0.0 0.00 0.00 0.00 57 1008.8
20260504230831 65 123 0.0 1.0 0.00 0.00 0.00 56 1008.8
20260504230329 65 125 0.0 0.0 0.00 0.00 0.00 56 1008.7
20260504225827 66 126 0.0 0.0 0.00 0.00 0.00 55 1008.8
20260504225323 66 112 0.0 0.0 0.00 0.00 0.00 54 1008.6
20260504224821 66 127 0.0 1.0 0.00 0.00 0.00 53 1008.5
20260504224318 68 126 0.0 0.0 0.00 0.00 0.00 52 1008.7
20260504223814 69 127 0.0 1.0 0.00 0.00 0.00 48 1008.6
20260504223310 70 108 0.0 0.0 0.00 0.00 0.00 43 1008.6
20260504222807 70 112 0.0 0.0 0.00 0.00 0.00 40 1008.7
20260504222305 70 108 0.0 0.0 0.00 0.00 0.00 40 1008.7
20260504221802 70 107 0.0 1.0 0.00 0.00 0.00 40 1008.5
20260504221258 70 143 2.0 3.0 0.00 0.00 0.00 38 1008.6
20260504220755 71 132 1.0 1.0 0.00 0.00 0.00 38 1008.8
20260504220252 71 147 0.0 1.0 0.00 0.00 0.00 38 1008.8
20260504215749 71 137 0.0 0.0 0.00 0.00 0.00 39 1008.6
20260504215246 71 148 0.0 0.0 0.00 0.00 0.00 38 1008.8
20260504214742 71 130 0.0 0.0 0.00 0.00 0.00 39 1008.7
20260504214238 72 150 0.0 0.0 0.00 0.00 0.00 37 1008.9
20260504213735 71 136 1.0 2.0 0.00 0.00 0.00 38 1008.7
20260504213231 71 111 0.0 1.0 0.00 0.00 0.00 38 1009.0
20260504212729 71 58 1.0 2.0 0.00 0.00 0.00 38 1008.9
20260504212225 72 133 0.0 1.0 0.00 0.00 0.00 36 1009.1
20260504211723 72 135 1.0 1.0 0.00 0.00 0.00 38 1009.1
20260504211219 72 120 0.0 0.0 0.00 0.00 0.00 38 1009.2
20260504210717 71 103 0.0 1.0 0.00 0.00 0.00 38 1008.9
20260504210213 71 108 0.0 1.0 0.00 0.00 0.00 37 1009.1
20260504205710 71 115 1.0 1.0 0.00 0.00 0.00 39 1008.9
20260504205208 71 81 0.0 0.0 0.00 0.00 0.00 37 1009.0
20260504204706 72 98 1.0 1.0 0.00 0.00 0.00 37 1009.0
20260504204205 71 125 0.0 1.0 0.00 0.00 0.00 36 1009.2
20260504203703 72 126 0.0 1.0 0.00 0.00 0.00 36 1009.0
20260504203200 72 116 3.0 3.0 0.00 0.00 0.00 38 1009.0
20260504202654 72 133 1.0 1.0 0.00 0.00 0.00 38 1009.2
20260504202152 72 216 2.0 2.0 0.00 0.00 0.00 36 1009.2
20260504201649 72 155 1.0 1.0 0.00 0.00 0.00 36 1009.2
20260504201146 72 121 1.0 1.0 0.00 0.00 0.00 36 1009.1
20260504200643 71 130 0.0 1.0 0.00 0.00 0.00 40 1009.2
20260504200140 72 106 0.0 0.0 0.00 0.00 0.00 38 1009.3
20260504195636 72 118 0.0 0.0 0.00 0.00 0.00 39 1009.4
20260504195132 72 118 0.0 1.0 0.00 0.00 0.00 37 1009.5
20260504194629 72 134 2.0 3.0 0.00 0.00 0.00 36 1009.5
20260504194125 73 85 2.0 2.0 0.00 0.00 0.00 37 1009.4
20260504193622 73 100 1.0 2.0 0.00 0.00 0.00 36 1009.7
20260504193120 73 157 2.0 3.0 0.00 0.00 0.00 36 1009.5
20260504192618 72 119 0.0 1.0 0.00 0.00 0.00 40 1009.4
20260504192115 72 138 1.0 1.0 0.00 0.00 0.00 38 1009.5
20260504191614 72 250 0.0 1.0 0.00 0.00 0.00 37 1009.7
20260504191109 72 136 2.0 2.0 0.00 0.00 0.00 38 1009.5
20260504190606 72 150 2.0 2.0 0.00 0.00 0.00 38 1009.8
20260504185559 72 153 2.0 3.0 0.00 0.00 0.00 35 1009.9
20260504185055 72 155 2.0 2.0 0.00 0.00 0.00 37 1010.0
20260504184551 72 196 1.0 2.0 0.00 0.00 0.00 39 1010.2
20260504184046 72 128 0.0 0.0 0.00 0.00 0.00 36 1010.1
20260504183544 72 170 1.0 2.0 0.00 0.00 0.00 35 1010.2
20260504183042 71 220 1.0 3.0 0.00 0.00 0.00 36 1010.2
20260504182538 71 127 2.0 2.0 0.00 0.00 0.00 37 1010.2
20260504182036 71 129 0.0 0.0 0.00 0.00 0.00 36 1010.5
20260504181533 72 200 2.0 3.0 0.00 0.00 0.00 34 1010.3
20260504181031 72 148 4.0 6.0 0.00 0.00 0.00 35 1010.2
20260504180530 71 80 2.0 2.0 0.00 0.00 0.00 38 1010.3
20260504180028 71 154 1.0 1.0 0.00 0.00 0.00 35 1010.2
20260504175525 71 212 3.0 5.0 0.00 0.00 0.00 35 1010.7
20260504175022 70 142 0.0 1.0 0.00 0.00 0.00 36 1010.6
20260504174520 70 42 1.0 2.0 0.00 0.00 0.00 37 1010.7
20260504174016 70 95 2.0 3.0 0.00 0.00 0.00 35 1010.9
20260504173513 70 148 1.0 1.0 0.00 0.00 0.00 38 1010.7
20260504173011 70 179 1.0 1.0 0.00 0.00 0.00 37 1010.6
20260504172507 71 5 2.0 2.0 0.00 0.00 0.00 35 1010.6
20260504172003 70 152 0.0 1.0 0.00 0.00 0.00 37 1011.0
20260504171500 70 96 1.0 1.0 0.00 0.00 0.00 37 1010.9
20260504170957 70 129 1.0 1.0 0.00 0.00 0.00 40 1010.9
20260504170453 69 153 3.0 5.0 0.00 0.00 0.00 38 1011.2
20260504160413 67 173 0.0 1.0 0.00 0.00 0.00 38 1011.8
20260504150837 66 145 0.0 0.0 0.00 0.00 0.00 41 1012.6
20260504150333 65 139 1.0 2.0 0.00 0.00 0.00 40 1012.5
20260504141304 62 102 1.0 1.0 0.00 0.00 0.00 44 1013.3
20260504140800 61 123 2.0 2.0 0.00 0.00 0.00 45 1013.2
20260504140256 60 135 0.0 0.0 0.00 0.00 0.00 48 1013.1
20260504130725 56 137 0.0 0.0 0.00 0.00 0.00 52 1013.8
20260504130220 55 128 0.0 1.0 0.00 0.00 0.00 53 1013.6
20260504120145 51 132 0.0 0.0 0.00 0.00 0.00 62 1014.2
20260504110612 48 114 0.0 0.0 0.00 0.00 0.00 67 1013.9
20260504110108 47 114 0.0 1.0 0.00 0.00 0.00 69 1014.0
20260504100534 44 136 0.0 0.0 0.00 0.00 0.00 72 1013.6
20260504081927 44 132 0.0 0.0 0.00 0.00 0.00 75 1013.2
20260504081424 44 134 0.0 0.0 0.00 0.00 0.00 73 1013.4
20260504080920 44 136 0.0 0.0 0.00 0.00 0.00 72 1013.1
20260504080417 44 136 0.0 0.0 0.00 0.00 0.00 72 1013.0
20260504070345 46 139 0.0 0.0 0.00 0.00 0.00 65 1012.9
20260504050732 41 128 0.0 0.0 0.00 0.00 0.00 84 1012.8
20260504050229 41 129 0.0 0.0 0.00 0.00 0.00 84 1012.6
20260504045726 42 127 0.0 0.0 0.00 0.00 0.00 83 1012.5
20260504045221 42 128 0.0 0.0 0.00 0.00 0.00 83 1012.6
20260504044719 42 132 0.0 0.0 0.00 0.00 0.00 83 1012.4
20260504044216 42 143 0.0 0.0 0.00 0.00 0.00 82 1012.4
20260504043713 42 132 0.0 0.0 0.00 0.00 0.00 82 1012.5
20260504043210 42 131 0.0 0.0 0.00 0.00 0.00 81 1012.6
20260504042708 41 135 0.0 0.0 0.00 0.00 0.00 83 1012.6
20260504042204 41 129 0.0 0.0 0.00 0.00 0.00 84 1012.4
20260504041700 41 129 0.0 0.0 0.00 0.00 0.00 84 1012.2
20260504041156 41 131 0.0 0.0 0.00 0.00 0.00 84 1012.4
20260504040653 41 129 0.0 0.0 0.00 0.00 0.00 84 1012.1
20260504040150 41 127 0.0 0.0 0.00 0.00 0.00 84 1012.2
20260504035647 41 130 0.0 0.0 0.00 0.00 0.00 83 1012.3
20260504035144 41 127 0.0 0.0 0.00 0.00 0.00 83 1012.3
20260504034641 41 127 0.0 0.0 0.00 0.00 0.00 83 1012.2
20260504034138 41 129 0.0 0.0 0.00 0.00 0.00 83 1012.4
20260504033636 41 128 0.0 0.0 0.00 0.00 0.00 81 1012.4
20260504033133 41 127 0.0 0.0 0.00 0.00 0.00 81 1012.2
20260504032630 42 127 0.0 0.0 0.00 0.00 0.00 81 1012.5
20260504032127 42 128 0.0 0.0 0.00 0.00 0.00 81 1012.4
20260504031624 42 131 0.0 0.0 0.00 0.00 0.00 80 1012.2
20260504031120 42 127 0.0 0.0 0.00 0.00 0.00 80 1012.2
20260504030617 42 127 0.0 0.0 0.00 0.00 0.00 79 1012.4
20260504030114 42 126 0.0 0.0 0.00 0.00 0.00 78 1012.4
20260504025610 42 130 0.0 0.0 0.00 0.00 0.00 77 1012.4
20260504025108 43 126 0.0 0.0 0.00 0.00 0.00 76 1012.3
20260504024605 43 127 0.0 0.0 0.00 0.00 0.00 75 1012.3
20260504024101 43 127 0.0 0.0 0.00 0.00 0.00 75 1012.5
20260504023557 43 128 0.0 0.0 0.00 0.00 0.00 74 1012.6
20260504023054 43 129 0.0 0.0 0.00 0.00 0.00 73 1012.3
20260504022550 44 127 0.0 0.0 0.00 0.00 0.00 72 1012.1
20260504022046 44 127 0.0 0.0 0.00 0.00 0.00 72 1012.2